{"data":{"norad_id":47826,"intl_designator":"2021-018AR","name":"STARLINK-2411","alt_names":[],"object_type":"PAYLOAD","status":"ACTIVE","operator":null,"country":"US","launch_date":"2021-03-11","launch_site_code":"AFETR","launch_vehicle":null,"mission":null,"orbit_class":"UNKNOWN","rcs_meters":null,"size_class":null,"mass_kg":null,"dimensions":null,"purposes":["comms"],"wikipedia_slug":null,"has_3d_model":false,"image_url":null,"decayed_at":null,"tle_current":{"epoch":"2026-05-25T00:11:46.675968Z","epoch_age_seconds":70506,"freshness":"FRESH","line1":"1 47826U 21018AR  26145.00817912 -.00002172  00000+0 -58267-4 0  9990","line2":"2 47826  53.1614 250.4214 0000332  93.9566 266.1474 15.31699623288387","mean_motion":15.31699623,"eccentricity":3.32e-5,"inclination_deg":53.1614,"raan_deg":250.4214,"arg_perigee_deg":93.9566,"mean_anomaly_deg":266.1474,"bstar":-5.8267e-5,"rev_number":28838,"period_min":94.013211100725,"perigee_km":470.51373628971,"apogee_km":470.96850179681,"semimajor_km":6848.8781190433,"source":"CELESTRAK","updated_at":"2026-05-25T13:38:16.604759Z"}}}